Boise

Airport
ICAO code: 
KBOI
Summary
ICAO Region: 
NAM
Territory: 
Location: 
Ada County, Idaho,
Coordinates: 
Aerial View: 
43° 33' 51.795" N, 116° 13' 24.728" W
Airport CFIT: 
Altimeter Temperature Error Correction
Airport LOS: 
Parallel Runway Operation
Metar
Observation
KBOI 241653Z 11008KT 10SM OVC013 M03/M06 A3028 RMK AO2 SLP278 T10331056
Station
Boise, Boise Air Terminal
Date/Time
2022-01-24 16:53:00
Wind direction
110°
Wind speed
08 kts
Lowest cloud amount
overcast
Temperature
-3.3°C
Dew point
-5.6°C
Humidity
84%
Weather condition
n/a

Description

Boise Airport, also known as Boise Air Terminal or Gowen Field, is a joint civil-military, commercial and general aviation airport located 3 nm south of downtown Boise in Ada County, Idaho, USA.

Climatology

Cold Semi-arid climate (Köppen climate classification BSk). - Hot, sometimes extremely hot summers and cold, sometimes very cold winters. Some snowfall during the winter. Areas featuring cold semi-arid climates are sometimes subject to major temperature swings during a 24 hour period.

Runways

Designator Length Width Surface Rops
9/27 1524 23 ASP No/No
10R/28L 2976 46 ASP Yes/Yes
10L/28R 3048 46 ASP Yes/Yes
Airport map: 
Aerial View: 

SKYbrary Partners:

Safety knowledge contributed by: